-> Other stations

1455

Speed(max): 6.5(10.8)knots
Direction:292° ( WNW)
Temperature: 32.6°C
Arrived: 2026-09-02 17:15:17 CEST

Past data:
hh:mmknots
Dir (°)
°C
17:13 5.9 9.2 WNW(290) 33.2
17:11 5.9 8.1 WNW(287) 33.1
17:09 5.4 8.1 WNW(291) 33.0
17:07 6.5 10.3 W(261) 32.6
17:05 6.5 9.2 WSW(242) 32.2
17:03 4.9 7 WSW(256) 32.0
17:01 5.4 7 WSW(253) 31.8
16:59 5.4 7.6 WSW(248) 31.7
16:57 3.8 7.6 WSW(241) 32.3
16:55 4.3 7 W(264) 32.6
16:53 5.9 8.6 W(277) 32.5
16:51 7 10.3 WNW(290) 32.3
16:49 7 10.3 WSW(241) 33.3
16:47 7.6 9.2 SW(236) 33.2
15 min. averages:
hh:mmknots
Dir (°)
°C
17:15 5.9 10.3 W(269) 32.6
17:00 5.9 10.3 WSW(255) 32.7
16:45 5.9 10.8 WSW(246) 32.6
16:30 7 10.8 SW(226) 30.9
16:15 7.6 11.3 SW(232) 32.4
16:00 7 11.9 WSW(245) 32.2
15:45 6.5 11.3 SW(233) 31.8
15:30 7 11.9 SW(219) 31.7
15:15 7 12.4 SW(217) 31.5
15:00 6.5 11.3 SW(223) 31.2
14:45 7.6 11.3 WSW(241) 31.9
14:30 6.5 11.3 SW(234) 32.0
14:15 6.5 11.9 SSW(212) 32.1
14:00 6.5 11.3 SSW(212) 31.8
13:45 7 11.3 WSW(237) 31.8
Stations at HR:
1455
-> Other regions

Desktop view
Data provided by Holfuy.
© Holfuy Weather 2026